GASPACS

Last updated on Sun May 22 2022 00:02:07 GMT+0000 (Coordinated Universal Time)

1 51439U 98067TB 22141.29161656 .02005118 28543-2 34016-2 0 9995 2 51439 51.6226 97.6702 0007036 144.5415 215.6065 16.02634031 17994

Satellite not in orbit